Theta_e
312 313 313 313 313 313 312 312 312 312 312 312 313 313 313 314 314 314 318 318 315 313 314 321 321 322 322 324 327 331 328 329 329 330 324 323 322 321 320 319 318 317 318 318 315
314 313 312 312 313 313 313 313 312 312 312 312 313 313 313 314 314 314 318 317 315 313 316 321 320 321 321 324 327 329 326 330 325 325 323 323 322 321 319 318 318 317 318 318 316
310 312 314 313 312 313 313 313 313 312 312 312 312 313 313 314 317 318 317 317 314 316 320 320 320 320 320 322 325 327 329 325 325 326 324 323 322 322 319 317 318 318 318 318 317
315 312 310 311 313 312 312 313 313 313 312 312 312 313 313 314 319 318 317 317 314 315 319 319 320 320 320 320 322 323 324 323 325 323 323 322 322 321 320 319 319 319 319 317 315
323 319 314 309 309 312 312 312 313 313 313 312 312 313 313 317 319 318 316 316 315 316 318 318 319 319 318 318 320 320 322 321 321 320 320 318 318 319 319 320 320 319 318 318 317
325 323 319 313 309 308 312 312 312 313 313 313 312 312 313 317 317 317 316 317 315 316 318 317 317 318 318 317 317 318 319 319 318 317 317 315 315 316 317 318 319 319 318 318 317
325 324 322 319 311 308 308 313 312 312 313 313 312 313 313 313 316 316 316 317 315 314 317 317 315 318 319 318 318 318 316 315 316 317 316 317 314 315 317 317 318 319 318 317 317
324 324 324 320 314 309 307 311 312 312 313 313 313 313 313 315 316 316 315 317 317 316 314 313 314 317 318 318 317 317 315 316 317 317 318 316 315 318 317 317 317 318 318 317 316
324 324 324 323 317 309 307 309 313 312 313 313 313 317 315 316 315 314 315 317 317 317 316 316 315 318 318 316 316 316 316 316 319 317 316 314 314 317 318 317 316 316 317 317 316
324 324 324 323 318 309 307 311 313 312 313 313 313 315 315 315 315 315 315 316 316 317 316 317 317 315 314 313 317 315 316 314 317 315 315 315 313 313 316 317 317 316 317 316 316
325 325 324 322 319 307 309 315 319 318 315 315 315 313 315 316 315 314 315 316 316 316 314 318 314 314 316 315 315 316 315 314 315 316 315 312 312 312 315 316 315 316 317 317 316
325 325 323 322 317 312 314 319 316 317 318 313 315 316 316 315 315 315 315 316 316 314 314 314 315 314 316 317 317 316 316 314 316 315 314 312 311 311 313 314 316 316 316 317 317
323 324 323 319 320 312 317 316 316 317 318 317 316 315 317 315 314 315 316 315 315 314 314 312 315 317 317 317 317 317 316 315 315 314 313 313 313 314 313 316 316 317 318 318 318
321 323 323 320 321 313 319 318 314 316 315 316 318 317 317 315 315 314 315 316 315 314 313 313 315 316 316 316 316 317 315 315 316 314 315 314 316 311 315 313 313 316 318 319 318
318 320 322 322 321 317 314 312 314 317 313 316 316 316 317 316 314 314 315 315 315 315 315 313 316 316 316 316 316 316 315 315 315 314 315 316 315 313 313 315 313 313 318 318 319
316 318 320 322 321 319 318 314 317 313 314 315 314 314 314 315 315 314 314 315 315 315 314 312 315 315 314 314 314 315 315 315 316 315 318 316 315 313 315 315 313 313 317 317 318
312 315 317 320 320 321 317 318 314 315 316 315 315 314 313 314 314 313 313 312 312 313 312 313 313 314 315 315 314 314 312 315 323 320 316 316 315 315 316 314 314 314 317 317 317
307 309 314 315 318 321 315 315 318 317 314 316 315 314 314 314 314 313 313 311 311 312 312 313 315 313 312 313 314 312 311 316 323 326 322 317 317 319 316 318 319 319 318 318 317
306 308 309 310 316 322 316 316 314 315 316 316 315 314 314 315 314 313 311 311 312 310 312 313 315 312 311 311 314 315 313 313 317 316 318 317 318 318 318 316 314 316 317 317 317
305 311 310 309 318 320 312 317 314 315 315 315 315 314 315 314 314 313 313 313 313 312 314 314 314 313 311 312 312 314 313 314 312 315 323 321 319 320 318 316 313 312 316 317 317
304 310 312 317 320 318 315 312 313 314 315 315 315 316 315 315 313 313 314 314 313 314 313 313 312 312 311 310 310 310 312 313 311 315 320 325 325 319 317 314 313 312 317 318 317
306 311 314 317 319 319 320 317 314 314 314 314 315 315 315 316 314 313 314 316 315 316 313 311 310 310 311 310 309 309 311 311 314 314 315 318 319 318 318 315 315 315 317 318 317
304 309 308 314 319 317 317 319 318 318 319 313 314 315 315 314 315 314 315 315 315 314 313 312 311 312 311 312 311 311 311 311 312 312 315 317 317 317 317 318 317 317 317 318 318
303 307 312 310 312 312 316 318 319 320 319 320 316 316 313 314 313 315 314 315 314 315 314 314 311 310 313 315 312 312 312 311 311 310 313 316 318 319 319 319 318 317 318 318 319
304 305 309 311 311 311 313 316 318 320 319 319 315 318 315 314 314 313 313 314 314 314 314 311 312 312 312 312 313 314 313 311 312 313 312 314 314 316 316 316 320 320 319 318 320
304 305 305 306 308 310 311 312 314 316 317 320 320 318 314 313 313 314 314 312 314 312 311 310 312 312 313 312 312 313 313 313 312 313 313 314 314 313 315 316 315 317 318 319 320
303 302 303 304 305 306 309 311 312 314 316 316 317 318 317 316 316 315 315 314 312 312 310 310 311 311 313 313 312 313 314 314 313 313 314 313 314 314 313 313 316 316 316 319 321
Wind_Speed
10 11 11 11 10 10 8 8 9 8 8 8 8 9 10 10 8 7 10 6 11 12 6 7 10 4 2 4 2 1 3 3 5 1 5 11 4 4 6 7 4 4 6 6 17
11 11 11 12 11 11 10 9 9 9 8 8 8 9 9 11 11 8 7 6 11 8 1 4 10 9 3 3 1 2 3 2 4 3 5 9 5 9 4 8 6 8 7 12 17
12 11 12 11 12 12 11 10 9 9 9 8 8 8 8 10 8 2 2 8 8 3 4 3 5 9 6 2 3 2 3 2 4 7 4 10 7 8 7 4 14 19 21 19 19
15 14 13 12 12 12 13 12 11 10 9 8 8 7 7 7 1 1 6 8 7 3 2 11 10 6 3 3 6 1 1 4 2 2 2 1 2 4 10 9 3 18 16 20 20
18 18 17 15 12 11 12 12 11 10 9 8 8 7 5 3 6 4 6 6 3 3 5 8 8 7 0 5 3 2 2 2 3 1 3 4 2 4 9 14 12 8 21 20 18
19 20 20 18 16 13 12 11 12 10 9 9 8 7 5 4 2 6 5 4 5 0 4 6 4 8 4 2 2 3 1 4 4 4 4 2 5 6 11 19 17 16 17 18 17
19 19 20 21 18 16 13 11 11 11 9 8 7 7 8 11 6 8 9 4 5 4 3 4 6 4 9 4 2 3 2 5 6 6 4 6 7 11 25 10 21 21 18 19 19
22 22 21 21 20 17 15 11 9 10 9 8 6 6 7 5 8 10 7 4 7 5 5 4 3 4 4 3 3 2 1 1 5 10 5 5 9 9 18 17 21 23 22 21 23
20 21 22 23 22 18 14 11 9 8 7 6 4 3 8 3 8 5 6 5 4 7 7 5 2 2 2 3 4 2 3 5 2 14 4 5 7 8 18 22 20 21 24 24 22
19 20 21 22 23 19 12 9 7 6 6 7 8 4 7 3 6 5 8 9 6 4 7 5 3 1 4 4 3 3 3 3 5 7 7 5 11 9 14 26 24 23 26 29 28
19 18 20 21 21 16 12 4 3 1 4 7 4 7 0 7 7 5 8 5 5 4 2 6 3 3 8 7 4 2 2 4 1 3 4 8 10 12 23 28 27 27 25 26 32
18 19 18 19 16 13 9 7 7 6 12 14 20 22 15 9 3 6 10 7 6 5 2 4 6 7 3 1 2 3 4 6 1 4 3 6 12 12 15 16 36 32 29 28 26
16 17 18 16 11 11 8 8 6 7 6 12 12 16 18 13 6 9 15 7 4 3 6 6 5 6 1 1 2 3 3 3 3 5 5 3 9 6 8 20 31 38 32 29 30
17 14 16 16 5 7 2 10 8 5 4 5 3 0 15 8 5 14 19 5 4 6 6 6 4 4 3 2 3 3 1 2 3 4 3 3 5 7 5 8 9 31 33 27 29
16 16 13 14 10 6 11 11 4 2 4 3 3 5 6 11 1 2 12 8 3 4 3 7 4 2 3 4 2 5 0 2 2 2 4 4 2 8 3 5 10 20 29 28 28
15 16 13 9 8 7 12 6 1 4 5 2 3 3 5 9 1 2 2 1 1 3 3 7 2 3 7 2 2 2 2 2 2 2 2 6 7 6 5 9 5 11 29 30 27
15 15 14 12 7 12 9 1 4 3 3 3 3 4 3 6 4 4 4 3 5 3 4 3 5 2 4 3 2 2 5 3 2 1 6 4 4 10 5 8 11 20 33 32 32
15 17 15 17 12 9 3 3 3 4 6 3 4 6 6 6 5 8 4 4 7 2 0 6 4 8 4 6 6 5 7 5 5 3 4 5 6 7 7 22 23 30 33 32 31
14 14 17 14 8 6 3 2 7 6 4 5 3 4 4 4 6 5 8 7 7 12 8 3 4 2 4 3 3 3 4 5 1 3 2 4 8 11 3 3 9 24 30 34 32
15 11 15 7 9 7 2 5 5 4 4 1 6 7 6 6 6 5 6 5 5 14 14 3 1 1 2 1 1 3 2 2 2 3 5 6 5 7 4 6 5 10 30 34 30
11 6 3 4 16 9 5 7 6 20 12 4 2 2 3 5 8 5 6 7 8 3 18 4 5 1 2 6 8 2 3 4 3 5 5 3 6 6 8 9 12 15 33 35 32
4 3 3 9 11 5 7 4 7 19 21 6 3 4 3 2 5 7 9 3 2 8 7 7 4 4 11 5 8 6 9 6 5 5 4 4 7 5 5 9 17 23 30 32 30
4 9 14 7 5 9 10 11 22 20 4 5 4 5 3 3 3 6 7 1 5 4 7 5 2 1 8 5 2 5 6 7 2 3 5 5 6 5 7 6 16 22 24 27 28
4 3 4 11 8 3 6 16 20 18 32 28 15 14 7 6 4 5 4 2 3 5 3 3 4 7 8 5 4 3 6 8 9 4 8 11 9 11 8 6 3 16 25 27 29
5 5 4 1 5 11 6 7 9 15 27 19 4 14 11 5 8 6 7 3 4 6 3 5 5 5 7 8 5 7 8 11 16 19 11 7 24 21 21 6 10 9 22 27 31
5 4 7 8 11 10 7 11 18 19 13 11 19 18 11 16 14 6 5 4 7 1 6 4 5 5 13 11 12 18 17 15 17 20 22 25 32 6 22 23 25 28 20 22 34
12 21 15 6 3 5 6 10 7 11 20 31 23 16 12 15 18 23 28 27 13 7 7 2 4 3 12 4 8 13 22 21 12 15 16 20 24 17 17 17 32 34 28 25 26
Wind_Direction
0 354 347 343 340 338 341 340 336 336 334 331 326 327 325 321 314 298 312 299 320 325 318 337 352 309 293 267 276 288 51 301 306 219 163 137 107 123 118 130 129 140 167 178 167
358 352 346 339 335 332 331 333 332 333 331 327 324 325 325 321 322 297 285 310 337 326 280 358 12 21 310 251 220 126 95 258 350 51 150 153 131 157 148 139 133 143 142 161 172
6 355 345 338 332 327 325 325 325 327 327 324 321 321 321 324 340 46 14 345 335 338 25 48 2 320 320 202 238 186 185 339 16 42 117 152 138 167 150 197 194 182 178 186 189
10 2 350 339 330 324 321 320 319 320 322 322 316 315 315 315 129 326 342 348 338 343 21 338 320 272 238 263 272 74 127 81 144 57 8 68 186 188 186 208 166 215 213 194 198
6 3 357 344 333 321 317 314 313 314 317 317 312 313 320 282 265 295 325 348 353 60 358 326 346 338 72 277 198 238 219 97 168 236 244 293 285 243 238 236 224 204 193 202 206
358 358 359 353 339 324 311 309 309 308 310 310 307 305 303 271 252 296 327 326 351 279 352 306 322 331 311 333 91 328 172 208 201 228 235 219 258 246 244 224 196 203 198 205 213
351 354 354 354 346 332 314 305 306 306 305 302 299 293 273 254 203 280 308 306 337 348 250 305 292 304 327 315 282 300 325 304 224 216 244 202 294 231 231 225 201 197 208 210 219
342 351 353 351 347 338 321 300 299 303 301 293 290 290 265 254 248 261 271 271 330 347 325 306 289 269 264 329 290 234 61 191 262 185 207 132 271 279 217 203 207 208 210 213 217
334 340 349 351 346 341 332 303 290 296 294 282 271 276 273 250 236 266 203 199 236 310 335 325 292 246 245 78 1 302 237 205 275 186 144 166 272 277 194 198 206 211 216 221 221
327 335 343 350 346 344 343 316 292 286 270 259 227 284 241 206 205 217 221 219 227 281 282 258 219 62 359 82 226 279 268 288 197 228 186 205 256 270 210 197 211 216 222 220 219
320 329 335 343 348 350 350 1 334 349 258 228 170 242 102 221 259 251 197 203 208 248 227 219 72 247 267 196 221 300 329 307 240 200 180 231 257 258 245 223 217 217 221 222 218
310 318 330 342 349 356 356 41 41 343 305 262 250 251 248 243 239 204 187 197 191 217 243 340 252 238 168 83 44 2 321 302 338 203 215 271 263 248 240 220 215 216 218 222 223
302 307 319 340 351 17 15 27 3 343 268 292 251 245 224 230 236 231 201 206 207 240 256 181 241 175 185 315 359 330 253 264 239 322 275 319 293 267 247 220 214 219 219 219 223
306 302 313 334 350 355 345 343 337 349 9 277 175 266 190 186 265 229 209 200 225 209 242 233 200 162 179 240 168 289 294 342 327 38 257 102 286 302 232 210 199 213 213 219 217
294 297 303 326 337 1 314 331 330 345 344 161 147 146 170 166 191 94 190 213 230 237 49 251 169 177 226 225 163 219 271 273 286 307 356 300 134 268 157 215 211 209 204 211 211
277 283 288 295 308 310 322 316 308 47 258 139 129 153 119 206 145 142 170 200 285 279 224 225 184 187 195 105 77 161 334 360 19 90 319 238 165 274 198 209 205 211 210 213 206
278 276 279 274 276 282 310 271 63 163 306 175 183 156 182 199 199 169 161 199 191 123 256 315 220 165 145 126 17 85 59 336 346 344 230 313 154 250 257 239 195 199 210 210 205
289 274 265 263 275 285 307 56 178 228 252 160 131 151 181 160 236 185 171 213 255 227 308 188 301 159 196 176 185 179 158 167 233 226 279 338 238 254 237 240 229 205 203 205 203
301 295 269 253 270 249 199 152 204 215 296 150 121 178 220 218 177 149 206 209 218 186 188 211 250 64 65 24 122 209 187 194 169 301 22 244 284 301 227 53 174 187 192 193 197
321 317 284 244 203 214 114 237 242 299 2 146 194 176 195 205 169 161 200 220 223 200 199 246 74 42 342 9 233 154 213 85 357 235 252 280 268 239 254 218 188 174 184 193 199
327 311 291 211 182 189 210 229 262 267 309 348 309 277 302 185 177 196 221 277 195 204 194 196 135 268 64 209 189 115 264 215 165 168 193 288 266 221 234 223 194 200 193 195 197
323 267 289 196 192 228 230 224 286 292 299 284 273 212 229 300 217 214 210 231 174 149 164 209 158 189 214 246 195 175 189 165 136 253 232 158 273 272 300 224 212 201 201 200 203
286 272 269 260 230 222 253 261 244 270 269 292 269 210 221 280 340 217 234 185 172 177 168 178 217 336 322 346 344 206 211 207 156 89 223 158 259 291 339 342 218 214 206 205 209
298 311 255 232 254 340 275 253 251 259 243 256 262 298 311 276 206 277 6 329 283 165 128 115 195 181 195 203 141 199 219 208 193 199 228 231 278 282 296 345 117 221 224 220 220
222 261 310 272 255 250 276 304 287 260 247 278 287 233 242 280 271 261 268 193 252 217 177 156 230 225 247 255 228 224 217 210 211 224 218 245 238 246 269 248 310 285 230 221 219
237 243 281 308 315 296 255 254 262 273 274 273 254 256 272 241 241 285 287 248 209 94 176 196 232 216 260 271 281 275 251 231 216 223 239 251 259 244 261 277 287 281 279 237 223
241 249 266 262 323 327 274 289 274 283 261 266 278 291 281 268 279 269 255 257 240 184 202 236 189 172 255 268 294 279 245 240 217 217 211 230 248 245 253 250 260 265 266 255 246